Home   Weather   Saipan   Past weeks

Flag for Northern Mariana Islands Past Weather in Saipan, Northern Mariana Islands — Yesterday and Last 2 Weeks

86 °F

Scattered clouds.

Feels Like: 98 °F
Forecast: 78 / 83 °F
Wind: 13 mph from Northeast

Location: Saipan International Airport

Current Time: Oct 29, 2016 at 9:33:24 AM

Latest Report: Oct 29, 2016 at 8:54 AM

Visibility: 10 mi

Pressure: 29.90 "Hg

Humidity: 77%

Dew Point: 78 °F

Location of SaipanLocation

Past Weather in Saipan — Graph


Saipan Temperature Yesterday

Maximum temperature yesterday: 90 °F (at 11:54 AM)
Minimum temperature yesterday: 81 °F (at 3:54 PM)
Average temperature yesterday: 84 °F

High & Low Weather Summary for the Past Weeks

High90 °F (Oct 14, 11:54 AM)94% (Oct 15, 4:01 AM)30.01 "Hg (Oct 15, 4:01 AM)
Low77 °F (Oct 17, 1:45 AM)67% (Oct 19, 9:54 AM)29.79 "Hg (Oct 15, 3:47 AM)
Average84 °F81%29.90 "Hg
* Reported Oct 14 7:54 AM — Oct 29 7:54 AM, Saipan, Weather by CustomWeather, © 2016

Note: Actual official high and low records may vary slightly from our data, if they occured in-between our weather recording intervals... More about our weather records


Saipan Weather History for the Previous 24 Hours

Scroll right to see more
Time TempWeatherWind HumidityBarometerVisibility
7:54 AM
Sat, Oct 29
82 °FSunny.12 mph88%29.89 "Hg10 mi
7:01 AM79 °FLight rain. Broken clouds.10 mph89%29.82 "Hg10 mi
6:36 AM79 °FRain. Partly sunny.20 mph89%29.82 "Hg7 mi
4:54 AM82 °FPassing clouds.10 mph85%29.85 "Hg10 mi
3:54 AM80 °FPassing clouds.9 mph85%29.85 "Hg10 mi
2:54 AM82 °FPassing clouds.10 mph88%29.85 "Hg10 mi
1:54 AM81 °FPassing clouds.9 mph85%29.85 "Hg10 mi
12:54 AM82 °FPassing clouds.12 mph82%29.87 "Hg10 mi
11:54 PM
Fri, Oct 28
82 °FPartly cloudy.12 mph88%29.88 "Hg10 mi
10:54 PM82 °FPartly cloudy.10 mph91%29.88 "Hg10 mi
9:54 PM83 °FPassing clouds.9 mph82%29.90 "Hg10 mi
8:54 PM83 °FOvercast.10 mph82%29.89 "Hg10 mi
7:54 PM83 °FPassing clouds.12 mph82%29.88 "Hg10 mi
6:54 PM83 °FPassing clouds.9 mph82%29.86 "Hg10 mi
5:54 PM83 °FPassing clouds.7 mph85%29.85 "Hg10 mi
4:54 PM84 °FPartly sunny.12 mph83%29.83 "Hg10 mi
3:54 PM81 °FLight rain. Broken clouds.8 mph85%29.83 "Hg10 mi
2:54 PM86 °FBroken clouds.15 mph80%29.82 "Hg10 mi
1:54 PM90 °FBroken clouds.17 mph68%29.82 "Hg10 mi
12:54 PM89 °FBroken clouds.17 mph72%29.84 "Hg10 mi
11:54 AM90 °FScattered clouds.17 mph70%29.86 "Hg10 mi
10:54 AM87 °FLight rain. Broken clouds.16 mph72%29.90 "Hg10 mi
9:54 AM87 °FBroken clouds.17 mph75%29.91 "Hg10 mi
Weather by CustomWeather, © 2016

See weather overviewHow to use our weather pages